Location: Borojevi?i
(45.0486°N, 16.2297°E)
Time: 21:49:22
(UTC+00:00)

Cosmos 1850 Rocket - Pass Details

Date: 08 August 2020
Orbit: 755 x 784 km, 74.0° (Epoch: 21 September)

Event Time Altitude Azimuth Distance (km) Brightness Sun altitude
Exits shadow 21:14:20 60° 203° (SSW) 891 4.0 -24.5°
Maximum altitude 21:15:22 88° 288° (WNW) 783 3.9 -24.6°
Drops below altitude 10° 21:20:40 10° 21° (NNE) 2,326 7.0 -25.0°
Sets 21:23:03 0° 22° (NNE) 3,252 7.8 -25.2°
